Home > Weather > Ankara > Past weeks

Flag for Turkey Weather for the Past 2 Weeks in Ankara, Turkey

Now
73 °F

Scattered clouds.


Feels Like: 77 °F
Forecast: 46 / 60 °F
Wind: 12 mph from Southwest

Location: Ankara / Esenboga

Current Time: May 3, 2016 at 1:51:38 PM

Latest Report: May 3, 2016 at 12:50 PM


Visibility: N/A

Pressure: 29.77 "Hg (26.92 "Hg at 871m altitude)

Humidity: 31%

Dew Point: 41 °F

Location of AnkaraLocation

Historic Weather in Ankara — Graph

°F

Ankara Temperature Yesterday

Maximum temperature yesterday: 70 °F (at 2:20 PM)
Minimum temperature yesterday: 45 °F (at 4:50 AM)
Average temperature yesterday: 59 °F

High & Low Weather Summary for the Past Weeks

 TemperatureHumidityPressure
High81 °F (Apr 20, 1:20 PM)93% (Apr 26, 4:20 AM)30.30 "Hg (Apr 26, 4:20 AM)
Low27 °F (Apr 22, 6:20 AM)13% (Apr 18, 1:20 PM)29.56 "Hg (Apr 24, 4:50 PM)
Average56 °F50%29.96 "Hg
* Reported Apr 18 12:20 PM — May 3 12:20 PM, Ankara, Weather by CustomWeather, © 2016

Note: Actual official high and low records may vary slightly from our data, if they occured in-between our weather recording intervals... More about our weather records

Advertising

Ankara Weather History for the Previous 24 Hours

Scroll right to see more
 ConditionsComfort  
Time TempWeatherWind HumidityBarometerVisibility
12:20 PM
Tue, May 3
72 °FScattered clouds.8 mph38%29.80 "HgN/A
11:50 AM72 °FScattered clouds.8 mph36%29.80 "HgN/A
10:50 AM68 °FScattered clouds.7 mph43%29.83 "HgN/A
10:20 AM68 °FScattered clouds.2 mph43%29.83 "HgN/A
9:50 AM64 °FScattered clouds.2 mph56%29.83 "HgN/A
9:20 AM63 °FScattered clouds.1 mph56%29.83 "HgN/A
8:50 AM59 °FScattered clouds.1 mph63%29.86 "HgN/A
8:20 AM57 °FScattered clouds.2 mph67%29.86 "HgN/A
7:50 AM59 °FBroken clouds.1 mph63%29.86 "HgN/A
7:20 AM54 °FScattered clouds.2 mph72%29.86 "HgN/A
6:50 AM54 °FScattered clouds.1 mph77%29.86 "HgN/A
6:20 AM52 °FPassing clouds.2 mph82%29.86 "HgN/A
5:50 AM54 °FPassing clouds.2 mph77%29.86 "HgN/A
5:20 AM54 °FPassing clouds.2 mph72%29.86 "HgN/A
4:20 AM54 °FPassing clouds.1 mph72%29.86 "HgN/A
3:50 AM54 °FPassing clouds.1 mph72%29.86 "HgN/A
3:20 AM54 °FPassing clouds.2 mph77%29.86 "HgN/A
2:50 AM54 °FPassing clouds.2 mph77%29.86 "HgN/A
2:20 AM55 °FPassing clouds.2 mph67%29.89 "HgN/A
1:50 AM55 °FPassing clouds.1 mph67%29.89 "HgN/A
12:50 AM55 °FPartly cloudy.1 mph67%29.92 "HgN/A
12:20 AM57 °FPartly cloudy.2 mph59%29.89 "HgN/A
11:50 PM
Mon, May 2
57 °FPartly cloudy.2 mph59%29.92 "HgN/A
11:20 PM55 °FPartly cloudy.1 mph67%29.92 "HgN/A
10:50 PM55 °FSprinkles. Partly cloudy.2 mph63%29.92 "HgN/A
10:20 PM57 °FPassing clouds.3 mph51%29.92 "HgN/A
9:50 PM57 °FPassing clouds.5 mph48%29.92 "HgN/A
9:20 PM57 °FPassing clouds.6 mph51%29.92 "HgN/A
8:50 PM59 °FPassing clouds.3 mph48%29.92 "HgN/A
8:20 PM64 °FScattered clouds.5 mph37%29.89 "HgN/A
7:50 PM66 °FScattered clouds.6 mph32%29.89 "HgN/A
7:20 PM68 °FScattered clouds.5 mph30%29.89 "HgN/A
6:50 PM70 °FPartly sunny.5 mph31%29.89 "HgN/A
6:20 PM70 °FPartly sunny.5 mph31%29.89 "HgN/A
5:50 PM70 °FPartly sunny.2 mph29%29.92 "HgN/A
5:20 PM70 °FPartly sunny.5 mph31%29.92 "HgN/A
4:50 PM70 °FPartly sunny.6 mph31%29.92 "HgN/A
4:20 PM70 °FPartly sunny.5 mph31%29.92 "HgN/A
3:50 PM70 °FPartly sunny.3 mph29%29.95 "HgN/A
3:20 PM70 °FPartly sunny.3 mph29%29.95 "HgN/A
2:50 PM70 °FPartly sunny.2 mph31%29.95 "HgN/A
2:20 PM70 °FPartly sunny.2 mph29%29.95 "HgN/A
1:50 PM68 °FPartly sunny.1 mph26%29.95 "HgN/A
1:20 PM68 °FPartly sunny.2 mph33%29.98 "HgN/A
Weather by CustomWeather, © 2016

See weather overviewHow to use our weather pages